MACSAT 2 (M 2) 1 20608U 90043B 10077.07377943 .00000224 00000-0 30563-4 0 9637 2 20608 89.7274 73.0332 0096129 19.7557 340.7346 14.72024537 63645 TUBSAT A 1 21577U 91050D 10077.01699163 -.00000012 00000-0 10509-4 0 7178 2 21577 98.5019 25.7500 0005582 316.4252 43.6504 14.38556210979572 S80/T 1 22078U 92052C 10076.48596914 -.00000037 00000-0 10000-3 0 8340 2 22078 66.0845 107.5120 0009775 205.6486 154.4058 12.86729601826909 HEALTHSAT 1 1 22827U 93061E 10077.01106053 .00000053 00000-0 36749-4 0 4919 2 22827 98.4676 29.3269 0009586 143.5263 216.6565 14.30194185859364 TUBSAT B 1 22970U 94003B 10076.18889784 .00000051 00000-0 10000-3 0 2862 2 22970 82.5641 316.9763 0014961 288.3321 71.6105 13.16916143775915 CERISE 1 23606U 95033B 10076.19458915 .00000552 00000-0 71595-4 0 458 2 23606 98.2697 211.5851 0005379 309.5067 50.5673 14.85021632792384 UPM/LBSAT 1 23607U 95033C 10077.11985038 .00000275 00000-0 48871-4 0 3370 2 23607 98.1746 170.8229 0007156 98.7329 261.4663 14.74810695789424 FAISAT 2V 1 24954U 97052B 10076.54147008 .00000055 00000-0 37656-4 0 7775 2 24954 82.9216 110.7647 0041366 81.5800 279.0050 13.79663541628365 MUBLCOM 1 25736U 99026B 10076.69580676 .00000289 00000-0 94336-4 0 9752 2 25736 97.7735 349.6435 0004872 306.0590 54.0151 14.44660220570288 RUBIN-3 & SL-8 R/B 1 27561U 02054C 10076.79098962 .00000097 00000-0 33000-4 0 9295 2 27561 97.9385 263.0859 0048635 110.2860 250.3575 14.53800031387269 APRIZESAT 2 1 28366U 04025A 10076.71047870 .00000015 00000-0 18278-4 0 5884 2 28366 98.1129 61.9450 0110296 65.2029 296.0712 14.35600388299471 SAUDICOMSAT 1 1 28369U 04025D 10076.06794945 .00000097 00000-0 35301-4 0 6255 2 28369 97.9899 106.1127 0032872 289.4693 70.2955 14.50674331302515 SAUDICOMSAT 2 1 28370U 04025E 10076.61348009 .00000111 00000-0 42313-4 0 6230 2 28370 98.0114 90.3342 0058713 329.2448 30.5320 14.45772102301574 APRIZESAT 1 1 28372U 04025G 10076.08094909 .00000028 00000-0 18691-4 0 6060 2 28372 97.9968 97.3598 0046662 310.5196 49.1952 14.48196712301997 NANOSAT-1 1 28493U 04049B 10076.68682518 .00000089 00000-0 23353-4 0 5837 2 28493 98.3038 47.1947 0005908 105.8209 254.3663 14.70381088281356 SAUDICOMSAT 7 1 31119U 07012C 10076.23524141 .00000387 00000-0 88724-4 0 8856 2 31119 97.9551 133.1064 0063219 121.6124 239.1242 14.59488779155320 SAUDICOMSAT 6 1 31121U 07012E 10076.18035444 .00000366 00000-0 89075-4 0 8875 2 31121 97.9500 127.7289 0079760 137.2308 223.5128 14.56360491154999 SAUDICOMSAT 5 1 31124U 07012H 10076.66066077 .00000401 00000-0 89121-4 0 8947 2 31124 97.9585 136.4221 0054529 112.3831 248.3155 14.61075464155556 SAUDICOMSAT 3 1 31125U 07012J 10076.21829571 .00000411 00000-0 88749-4 0 9009 2 31125 97.9617 138.7173 0046237 106.6054 254.0212 14.62611174155658 SAUDICOMSAT 4 1 31127U 07012L 10076.62996340 .00000381 00000-0 89803-4 0 8934 2 31127 97.9525 130.9903 0071106 127.7691 232.9955 14.58010902155226 APRIZESAT 4 1 35684U 09041D 10076.38171659 .00000228 00000-0 40329-4 0 2104 2 35684 98.1136 336.7903 0049639 339.6144 20.3034 14.76057047 34020 APRIZESAT 3 1 35686U 09041F 10076.72533071 .00000227 00000-0 34099-4 0 2021 2 35686 98.1133 339.5018 0079479 335.7972 23.9511 14.82541809 34220